This demonstration page uses our WeatherBlox Daily Observations layout. Learn more.

Left ArrowRight Arrow

31.84235, -102.49876

Hourly Observations for May 27, 2015

Temp ( °F °C ) Dew Point ( °F °C ) Humidity (%) Winds ( mph kmh ) Pressure ( in mb ) Visibility ( mi km ) Precip ( " mm )
12:53 am 00:53 Clear 74 23.3 66 18.9 76 76 S 13 20 29.87 1012 7 11 0.00 0.00
1:53 am 01:53 Hazy 73 22.8 66 18.9 79 79 S 13 20 29.87 1012 6 10 0.00 0.00
2:53 am 02:53 Hazy 72 22.2 66 18.9 82 82 S 12 19 29.86 1011 6 10 0.00 0.00
3:53 am 03:53 Hazy 71 21.7 66 18.9 84 84 S 8 13 29.87 1011 5 8 0.00 0.00
4:53 am 04:53 Clear with Mist and Fog 70 21.1 66 18.9 87 87 S 7 11 29.87 1012 4 6 0.00 0.00
5:53 am 05:53 Clear with Mist and Fog 69 20.6 66 18.9 90 90 SSE 7 11 29.88 1012 3 5 0.00 0.00
6:23 am 06:23 Mostly Cloudy with Mist and Fog 70 21.1 67 19.4 90 90 SSE 10 17 29.91 1013 3 5 0.00 0.00
6:49 am 06:49 Cloudy with Mist and Fog 70 21 66 19 88 88 SSE 13 20 29.94 1014 2 3 0.00 0.00
6:50 am 06:50 Cloudy with Mist and Fog 70 21 66 19 88 88 SE 13 20 29.94 1014 2 3 0.00 0.00
6:53 am 06:53 Mostly Cloudy with Mist and Fog 70 21.1 67 19.4 90 90 SSE 12 19 29.90 1013 2 3 0.00 0.00
7:26 am 07:26 Cloudy with Mist and Fog 70 21.1 67 19.4 90 90 SE 13 20 29.94 1014 2 3 0.00 0.00
7:38 am 07:38 Cloudy with Mist and Fog 70 21.1 67 19.4 90 90 SE 14 22 29.94 1014 3 4 0.00 0.00
7:51 am 07:51 Cloudy with Mist and Fog 72 22 66 19 83 83 SSE 13 20 29.94 1014 3 5 0.00 0.00
7:53 am 07:53 Cloudy with Mist and Fog 71 21.7 67 19.4 87 87 SSE 14 22 29.93 1013 3 5 0.00 0.00
8:32 am 08:32 Cloudy with Haze 72 22.2 67 19.4 84 84 SSE 16 26 29.97 1015 4 6 0.00 0.00
8:53 am 08:53 Cloudy with Haze 73 22.8 66 18.9 79 79 SSE 12 19 29.94 1014 4 6 0.00 0.00
9:31 am 09:31 Mostly Cloudy with Haze 75 23.9 66 18.9 74 74 S 15 24 29.94 1014 5 8 0.00 0.00
9:51 am 09:51 Hazy 73 23 66 19 78 78 S 16 26 29.94 1014 5 8 0.00 0.00
9:53 am 09:53 Hazy 74 23.3 66 18.9 76 76 S 16 26 29.96 1015 5 8 0.00 0.00
10:45 am 10:45 Mostly Cloudy with Haze 78 25.6 65 18.3 64 64 S 13 20 29.91 1013 6 10 0.00 0.00
10:53 am 10:53 Mostly Cloudy with Haze 78 25.6 65 18.3 64 64 S 12 19 29.95 1014 6 10 0.00 0.00
11:53 am 11:53 Hazy 82 27.8 65 18.3 56 56 S 15 24 29.94 1014 6 10 0.00 0.00
12:53 pm 12:53 Hazy 84 28.9 64 17.8 51 51 SE 14 22 29.93 1013 6 10 0.00 0.00
1:53 pm 13:53 Mostly Sunny 87 30.6 63 17.2 45 45 SSE 15 24 29.91 1013 7 11 0.00 0.00
2:53 pm 14:53 Mostly Sunny 89 31.7 62 16.7 41 41 SSE 13 20 29.88 1012 7 11 0.00 0.00
3:53 pm 15:53 Mostly Sunny 89 31.7 61 16.1 39 39 SE 14 22 29.87 1011 8 13 0.00 0.00
4:53 pm 16:53 Mostly Cloudy 89 31.7 60 15.6 38 38 SE 15 24 29.84 1011 8 13 0.00 0.00
5:53 pm 17:53 Sunny 89 31.7 58 14.4 35 35 SSE 15 24 29.81 1010 8 13 0.00 0.00
6:53 pm 18:53 Mostly Sunny 86 30 59 15 40 40 SE 18 30 29.81 1009 8 13 0.00 0.00
7:53 pm 19:53 Sunny 84 28.9 61 16.1 46 46 S 17 28 29.85 1011 7 11 0.00 0.00
8:53 pm 20:53 Clear 83 28.3 62 16.7 49 49 SSE 12 19 29.88 1012 8 13 0.00 0.00
9:53 pm 21:53 Clear 81 27.2 62 16.7 53 53 E 8 13 29.89 1012 8 13 0.00 0.03
10:53 pm 22:53 Clear 80 26.7 63 17.2 56 56 S 22 35 29.89 1012 8 13 0.00 0.00
11:53 pm 23:53 Clear 77 25 65 18.3 66 66 S 13 20 29.89 1012 8 13 0.00 0.00

Powered by AerisWeather